DW2488 Weather Reports


time (UTC)temp
C
wind
direction
speed
KPH
gust
KPH
rain 1hr
cm
rain 24hr
cm
rain mn
cm
humidity
%
barometer
mb
20260503210612 14 0 3.2 6.4 0.00 0.00 0.00 88 1016.3
20260503205117 14 0 1.6 4.8 0.00 0.00 0.00 88 1016.3
20260503203612 14 0 0.0 3.2 0.00 0.00 0.00 88 1016.3
20260503202104 14 0 1.6 3.2 0.00 0.00 0.00 88 1016.2
20260503200603 14 140 1.6 4.8 0.00 0.00 0.00 88 1016.0
20260503195052 13 0 3.2 6.4 0.00 0.00 0.00 88 1015.8
20260503193554 13 0 1.6 6.4 0.00 0.00 0.00 88 1015.9
20260503192049 13 0 3.2 6.4 0.00 0.00 0.00 88 1016.0
20260503190550 13 0 1.6 4.8 0.00 0.00 0.00 88 1015.9
20260503185035 13 0 4.8 8.0 0.00 0.00 0.00 88 1016.0
20260503183524 13 140 3.2 6.4 0.00 0.00 0.00 88 1016.0
20260503182023 13 0 3.2 6.4 0.00 0.00 0.00 88 1016.1
20260503180521 13 0 3.2 8.0 0.00 0.00 0.00 88 1016.1
20260503175022 13 0 3.2 6.4 0.00 0.00 0.00 88 1016.0
20260503173516 13 0 1.6 6.4 0.00 0.00 0.00 88 1016.0
20260503172017 13 0 1.6 4.8 0.00 0.00 0.00 88 1016.1
20260503170536 13 0 3.2 8.0 0.00 0.00 0.00 88 1016.4
20260503150456 13 0 1.6 4.8 0.00 0.00 0.00 87 1017.3
20260503130411 15 0 3.2 6.4 0.00 0.00 0.00 85 1018.3
20260503110430 16 0 0.0 0.0 0.00 0.00 0.00 82 1018.7
20260503090346 19 0 1.6 4.8 0.00 0.00 0.00 76 1018.6
20260503080312 20 34 3.2 14.5 0.00 0.00 0.00 72 1018.2
20260503071812 22 0 3.2 17.7 0.00 0.00 0.00 68 1017.9
20260503070312 22 69 4.8 14.5 0.00 0.00 0.00 66 1018.0
20260503060311 25 0 1.6 8.0 0.00 0.00 0.00 55 1018.1
20260503054812 25 0 1.6 9.7 0.00 0.00 0.00 57 1018.4
20260503053312 24 40 1.6 6.4 0.00 0.00 0.00 58 1018.4
20260503051812 24 0 1.6 8.0 0.00 0.00 0.00 58 1018.5
20260503050311 25 48 1.6 8.0 0.00 0.00 0.00 57 1018.7
20260503044816 24 0 3.2 12.9 0.00 0.00 0.00 58 1018.7
20260503043314 25 0 1.6 8.0 0.00 0.00 0.00 55 1018.9
20260503041812 25 21 1.6 9.7 0.00 0.00 0.00 55 1018.9
20260503040310 25 37 3.2 16.1 0.00 0.00 0.00 54 1019.1
20260503034818 25 0 1.6 12.9 0.00 0.05 0.00 53 1019.3
20260503033310 25 0 3.2 14.5 0.00 0.05 0.00 54 1019.2
20260503031816 26 0 3.2 16.1 0.00 0.05 0.00 54 1019.6
20260503030312 25 41 1.6 14.5 0.00 0.05 0.00 57 1019.6
20260503024812 25 0 3.2 16.1 0.00 0.05 0.00 57 1019.8
20260503023312 24 58 3.2 12.9 0.00 0.05 0.00 60 1020.2
20260503021812 24 0 1.6 9.7 0.00 0.05 0.00 60 1020.4
20260503020312 25 0 1.6 9.7 0.00 0.05 0.00 58 1020.5
20260503014812 25 326 1.6 12.9 0.00 0.05 0.00 60 1021.1
20260503013310 25 45 0.0 6.4 0.00 0.05 0.00 63 1021.5
20260503011812 24 55 1.6 8.0 0.00 0.05 0.00 63 1021.8
20260503010309 23 49 1.6 9.7 0.00 0.05 0.00 66 1022.1
20260503004812 22 349 1.6 6.4 0.00 0.05 0.00 66 1022.2
20260503003312 21 279 1.6 6.4 0.00 0.05 0.00 71 1022.4
20260503001810 21 279 1.6 8.0 0.00 0.05 0.00 72 1022.7
20260503000312 21 293 1.6 4.8 0.00 0.05 0.00 75 1022.8
20260502234812 20 148 0.0 1.6 0.00 0.05 0.00 76 1022.7
20260502233311 20 150 0.0 3.2 0.00 0.05 0.00 80 1022.5
20260502231812 18 0 0.0 3.2 0.00 0.05 0.00 85 1022.8
20260502230311 17 0 0.0 3.2 0.00 0.05 0.00 90 1022.7
20260502224810 16 158 3.2 8.0 0.00 0.05 0.00 92 1022.9
20260502223312 15 151 1.6 6.4 0.00 0.05 0.00 92 1023.0
20260502221810 15 143 1.6 6.4 0.00 0.05 0.00 93 1023.0
20260502220312 14 0 4.8 8.0 0.00 0.05 0.00 92 1022.9
20260502214812 13 114 3.2 9.7 0.00 0.05 0.00 92 1022.7
20260502213312 13 140 3.2 8.0 0.00 0.05 0.00 92 1022.5